This demonstration page uses our WeatherBlox Daily Observations layout. Learn more.

Left ArrowRight Arrow

39.92423, -83.80882

Hourly Observations for October 22, 2020

Temp ( °F °C ) Dew Point ( °F °C ) Humidity (%) Winds ( mph kmh ) Pressure ( in mb ) Visibility ( mi km ) Precip ( " mm )
12:56 am 00:56 Partly Cloudy with Mist and Fog 58 14.4 58 14.4 100 100 SE 8 13 30.18 1022 4 6.43736 0 0
1:01 am 01:01 Mostly Cloudy with Mist and Fog 57 14 57 14 100 100 SE 8 13 30.18 1022 2.5 4.02335 0 0
1:10 am 01:10 Mostly Cloudy with Mist and Fog 59 15 59 15 100 100 SE 9 15 30.17 1022 1 1.60934 0 0
1:34 am 01:34 Cloudy with Mist and Fog 59 15 59 15 100 100 SE 7 11 30.16 1021 1.75 2.816345 0 0
1:42 am 01:42 Cloudy with Mist and Fog 59 15 59 15 100 100 SE 6 9 30.17 1022 2.5 4.02335 0 0
1:56 am 01:56 Cloudy with Mist and Fog 59 15 59 15 100 100 SE 6 9 30.17 1022 2.5 4.02335 0 0
2:22 am 02:22 Mostly Cloudy with Mist and Fog 57 14 57 14 100 100 SE 3 6 30.17 1022 1 1.60934 0 0
2:28 am 02:28 Mostly Cloudy with Fog 57 14 57 14 100 100 SE 3 6 30.17 1022 0.5 0.80467 0 0
2:44 am 02:44 Mostly Cloudy with Fog 57 14 57 14 100 100 ESE 5 7 30.17 1022 0.25 0.402335 0 0
2:53 am 02:53 Mostly Cloudy with Fog 57 14 57 14 100 100 SE 5 7 30.17 1022 0.5 0.80467 0 0
2:56 am 02:56 Mostly Cloudy with Fog 57 13.9 57 13.9 100 100 SE 5 7 30.17 1022 0.5 0.80467 0 0
3:08 am 03:08 Mostly Cloudy with Mist and Fog 57 14 57 14 100 100 SE 5 7 30.17 1022 0.75 1.207005 0 0
3:10 am 03:10 Mostly Cloudy with Fog 57 14 57 14 100 100 SE 3 6 30.17 1022 0.5 0.80467 0 0
3:22 am 03:22 Mostly Cloudy with Fog 55 13 55 13 100 100 Calm 30.17 1022 0.25 0.402335 0.01 0.254
3:56 am 03:56 Mostly Cloudy with Mist and Fog 57 13.9 57 13.9 100 100 SSE 5 7 30.16 1021 0.75 1.207005 0.01 0.254
3:59 am 03:59 Mostly Cloudy with Mist and Fog 57 14 57 14 100 100 SSE 5 7 30.16 1021 2.5 4.02335 0 0
4:01 am 04:01 Partly Cloudy with Mist and Fog 57 14 57 14 100 100 SSE 6 9 30.16 1021 4 6.43736 0 0
4:56 am 04:56 Clear 58 14.4 58 14.4 100 100 SSE 6 9 30.16 1021 7 11.26538 0 0
5:56 am 05:56 Clear 59 15 59 15 100 100 S 7 11 30.17 1022 10 16.0934 0.01 0.254
6:56 am 06:56 Clear 59 15 59 15 100 100 S 7 11 30.17 1022 10 16.0934 0 0
7:56 am 07:56 Sunny 58 14.4 58 14.4 100 100 SSE 7 11 30.18 1022 10 16.0934 0 0
8:56 am 08:56 Sunny 61 16.1 61 16.1 100 100 S 5 7 30.19 1023 10 16.0934 0 0
9:56 am 09:56 Partly Cloudy 66 18.9 63 17.2 90 90 SSW 3 6 30.2 1023 10 16.0934 0 0
10:56 am 10:56 Partly Cloudy 71 21.7 63 17.2 76 76 SSW 8 13 30.19 1022 10 16.0934 0 0
11:56 am 11:56 Sunny 74 23.3 64 17.8 71 71 SW 6 9 30.18 1022 10 16.0934 0 0
12:56 pm 12:56 Sunny 76 24.4 64 17.8 67 67 SW 8 13 30.16 1021 10 16.0934 0 0
1:56 pm 13:56 Partly Cloudy 77 25 64 17.8 64 64 WSW 9 15 30.12 1020 10 16.0934 0 0
2:56 pm 14:56 Partly Cloudy 80 26.7 64 17.8 58 58 SSW 10 17 30.11 1020 10 16.0934 0 0
3:56 pm 15:56 Mostly Sunny 79 26.1 63 17.2 58 58 WSW 12 19 30.09 1019 10 16.0934 0 0
4:56 pm 16:56 Mostly Cloudy 79 26.1 63 17.2 58 58 SSW 7 11 30.09 1019 10 16.0934 0 0
5:56 pm 17:56 Sunny 76 24.4 61 16.1 60 60 SSW 5 7 30.1 1019 10 16.0934 0 0
6:56 pm 18:56 Clear 72 22.2 62 16.7 71 71 S 5 7 30.1 1019 10 16.0934 0 0
7:56 pm 19:56 Mostly Clear 69 20.6 63 17.2 81 81 SSE 5 7 30.11 1020 10 16.0934 0 0
8:56 pm 20:56 Clear 68 20 62 16.7 81 81 SSE 6 9 30.11 1020 10 16.0934 0 0
9:56 pm 21:56 Clear 66 18.9 62 16.7 87 87 SSE 7 11 30.09 1019 10 16.0934 0.01 0.254
10:56 pm 22:56 Clear 66 18.9 61 16.1 84 84 S 7 11 30.08 1019 10 16.0934 0 0
11:56 pm 23:56 Clear 65 18.3 61 16.1 87 87 S 6 9 30.06 1018 10 16.0934 0 0

Powered by AerisWeather